2023/03/01 00:00:00, 0.6, 2.4
2023/03/01 00:10:00, 0.6, 2.4
2023/03/01 00:20:00, 0.6, 2.6
2023/03/01 00:30:00, 0.6, 2.4
2023/03/01 00:40:00, 0.6, 2.6
2023/03/01 00:50:00, 0.6,-0.2
2023/03/01 01:00:00, 0.6, 2.7
2023/03/01 01:10:00, 0.5, 2.5
2023/03/01 01:20:00, 0.5, 2.7
2023/03/01 01:30:00, 0.5, 2.6
2023/03/01 01:40:00, 0.5, 2.4
2023/03/01 01:50:00, 0.5, 2.4
2023/03/01 02:00:00, 0.6, 2.6
2023/03/01 02:10:00, 0.6, 2.4
2023/03/01 02:20:00, 0.6, 2.3
2023/03/01 02:30:00, 0.7, 2.4
2023/03/01 02:40:00, 0.7, 2.6
2023/03/01 02:50:00, 0.7, 2.5
2023/03/01 03:00:00, 0.8, 2.8
2023/03/01 03:10:00, 0.7, 2.7
2023/03/01 03:20:00, 0.7, 2.4
2023/03/01 03:30:00, 0.7, 2.2
2023/03/01 03:40:00, 0.8, 1.7
2023/03/01 03:50:00, 0.8, 1.7
2023/03/01 04:00:00, 0.8, 2.3
2023/03/01 04:10:00, 0.9, 1.8
2023/03/01 04:20:00, 0.9, 2.3
2023/03/01 04:30:00, 0.9, 1.7
2023/03/01 04:40:00, 0.9, 2.1
2023/03/01 04:50:00, 0.8, 2.0
2023/03/01 05:00:00, 0.8, 1.8
2023/03/01 05:10:00, 0.8, 2.2
2023/03/01 05:20:00, 0.8, 2.4
2023/03/01 05:30:00, 0.8, 2.0
2023/03/01 05:40:00, 0.8, 2.0
2023/03/01 05:50:00, 0.8, 2.3
2023/03/01 06:00:00, 0.8, 2.3
2023/03/01 06:10:00, 0.8, 2.2
2023/03/01 06:20:00, 0.8, 2.7
2023/03/01 06:30:00, 0.8, 2.4
2023/03/01 06:40:00, 0.9, 2.1
2023/03/01 06:50:00, 0.8, 2.3
2023/03/01 07:00:00, 0.8, 2.4
2023/03/01 07:10:00, 0.8, 2.6
2023/03/01 07:20:00, 0.8, 2.8
2023/03/01 07:30:00, 0.9, 2.8
2023/03/01 07:40:00, 1.0, 3.4
2023/03/01 07:50:00, 0.9, 3.3
2023/03/01 08:00:00, 0.8, 3.7
2023/03/01 08:10:00, 0.7, 4.3
2023/03/01 08:20:00, 0.7, 4.2
2023/03/01 08:30:00, 0.7, 4.9
2023/03/01 08:40:00, 0.7, 6.1
2023/03/01 08:50:00, 0.7, 7.5
2023/03/01 09:00:00, 0.8, 8.7
2023/03/01 09:10:00, 0.7, 9.4
2023/03/01 09:20:00, 0.7,11.0
2023/03/01 09:30:00, 0.7,10.9
2023/03/01 09:40:00, 0.9,12.8
2023/03/01 09:50:00, 1.0,12.6
2023/03/01 10:00:00, 0.8,12.6
2023/03/01 10:10:00, 0.8,12.0
2023/03/01 10:20:00, 0.8,12.2
2023/03/01 10:30:00, 0.9,12.2
2023/03/01 10:40:00, 0.9,13.2
2023/03/01 10:50:00, 0.9,13.4
2023/03/01 11:00:00, 0.9,13.2
2023/03/01 11:10:00, 0.8,13.1
2023/03/01 11:20:00, 0.8,12.9
2023/03/01 11:30:00, 0.9,13.3
2023/03/01 11:40:00, 0.9,14.1
2023/03/01 11:50:00, 0.9,13.5
2023/03/01 12:00:00, 0.9,13.6
2023/03/01 12:10:00, 0.9,14.1
2023/03/01 12:20:00, 0.9,13.7
2023/03/01 12:30:00, 0.9,13.6
2023/03/01 12:40:00, 0.9,13.4
2023/03/01 12:50:00, 0.8,13.0
2023/03/01 13:00:00, 0.8,12.7
2023/03/01 13:10:00, 0.8,12.6
2023/03/01 13:20:00, 0.9,12.4
2023/03/01 13:30:00, 0.9,11.9
2023/03/01 13:40:00, 0.9,12.0
2023/03/01 13:50:00, 0.9,11.5
2023/03/01 14:00:00, 0.9,12.1
2023/03/01 14:10:00, 0.9,12.2
2023/03/01 14:20:00, 0.9,12.7
2023/03/01 14:30:00, 0.9,13.1
2023/03/01 14:40:00, 0.9,12.7
2023/03/01 14:50:00, 0.9,12.8
2023/03/01 15:00:00, 0.9,12.4
2023/03/01 15:10:00, 0.8,11.6
2023/03/01 15:20:00, 0.7,10.7
2023/03/01 15:30:00, 0.8,11.3
2023/03/01 15:40:00, 0.8,11.3
2023/03/01 15:50:00, 0.7,11.6
2023/03/01 16:00:00, 0.8,11.6
2023/03/01 16:10:00, 0.8,11.1
2023/03/01 16:20:00, 0.8,10.7
2023/03/01 16:30:00, 0.8, 9.5
2023/03/01 16:40:00, 0.7, 8.9
2023/03/01 16:50:00, 0.8, 9.0
2023/03/01 17:00:00, 0.7, 8.9
2023/03/01 17:10:00, 0.8,10.1
2023/03/01 17:20:00, 0.7, 9.4
2023/03/01 17:30:00, 0.8, 9.2
2023/03/01 17:40:00, 0.7, 8.7
2023/03/01 17:50:00, 0.7, 8.4
2023/03/01 18:00:00, 0.7, 8.3
2023/03/01 18:10:00, 0.7, 8.0
2023/03/01 18:20:00, 0.7, 8.3
2023/03/01 18:30:00, 0.7, 7.9
2023/03/01 18:40:00, 0.7, 7.5
2023/03/01 18:50:00, 0.7, 7.9
2023/03/01 19:00:00, 0.6, 7.4
2023/03/01 19:10:00, 0.7, 7.4
2023/03/01 19:20:00, 0.7, 7.3
2023/03/01 19:30:00, 0.7, 7.1
2023/03/01 19:40:00, 0.7, 7.1
2023/03/01 19:50:00, 0.7, 7.1
2023/03/01 20:00:00, 0.7, 6.7
2023/03/01 20:10:00, 0.7, 6.9
2023/03/01 20:20:00, 0.7, 7.0
2023/03/01 20:30:00, 0.6, 6.8
2023/03/01 20:40:00, 0.6, 7.0
2023/03/01 20:50:00, 0.7, 7.1
2023/03/01 21:00:00, 0.7, 6.7
2023/03/01 21:10:00, 0.7, 6.8
2023/03/01 21:20:00, 0.7, 6.8
2023/03/01 21:30:00, 0.7, 6.7
2023/03/01 21:40:00, 0.7, 6.5
2023/03/01 21:50:00, 0.7, 6.6
2023/03/01 22:00:00, 0.7, 6.3
2023/03/01 22:10:00, 0.7, 6.4
2023/03/01 22:20:00, 0.7, 6.4
2023/03/01 22:30:00, 0.7, 6.1
2023/03/01 22:40:00, 0.7, 5.9
2023/03/01 22:50:00, 0.7, 5.7
2023/03/01 23:00:00, 0.7, 5.7
2023/03/01 23:10:00, 0.7, 5.5
2023/03/01 23:20:00, 0.7, 5.5
2023/03/01 23:30:00, 0.7, 5.3
2023/03/01 23:40:00, 0.7, 5.5
2023/03/01 23:50:00, 0.7, 5.5
